Location: Unspecified
(17.6330°N, 0.0000°E)
Time: 16:36:29
(UTC+00:00)

Courier 1B Rocket - Pass Details

Date: 26 June 2019
Orbit: 920 x 1202 km, 28.2° (Epoch: 19 July)

Event Time Altitude Azimuth Distance (km) Brightness Sun altitude
Exits shadow 03:29:56 20° 296° (WNW) 2,286 6.7 -24.9°
Maximum altitude 03:34:15 37° 351° (N) 1,576 6.2 -24.1°
Drops below altitude 10° 03:40:30 10° 57° (ENE) 2,784 8.5 -22.9°
Sets 03:43:19 0° 66° (ENE) 3,693 9.4 -22.3°
